Temperature
-2 -2 -3 -3 -3 -3 -3 -3 -4 -4 -4 -4 -4 -4 -4 -4 -4 -4 -4 -4 -4 -4 -4 -4 -4 -4 -4 -4 -4 -4 -4 -4 -4 -4 -3 -3 -2 -2 -2 -1 -1 -1 -0
-3 -3 -3 -3 -4 -4 -4 -4 -4 -4 -4 -4 -4 -5 -5 -5 -5 -5 -5 -5 -5 -5 -5 -5 -5 -5 -5 -4 -4 -4 -4 -4 -4 -4 -4 -3 -3 -3 -2 -2 -2 -2 -1
-4 -4 -4 -4 -4 -4 -4 -4 -5 -5 -5 -5 -5 -5 -5 -5 -5 -5 -5 -5 -5 -5 -5 -5 -5 -5 -5 -5 -5 -5 -4 -4 -4 -4 -4 -4 -3 -3 -3 -3 -3 -2 -2
-4 -4 -4 -5 -5 -5 -5 -5 -5 -5 -5 -6 -6 -6 -6 -6 -6 -6 -6 -6 -6 -6 -6 -6 -6 -6 -5 -5 -5 -5 -5 -5 -5 -5 -4 -4 -4 -4 -4 -4 -3 -3 -3
-5 -5 -5 -5 -5 -6 -6 -6 -6 -6 -6 -6 -6 -6 -6 -6 -6 -6 -6 -6 -6 -6 -6 -6 -6 -6 -6 -6 -6 -5 -5 -5 -5 -5 -5 -5 -5 -5 -4 -4 -4 -4 -4
-5 -5 -6 -6 -6 -6 -6 -6 -6 -7 -7 -7 -7 -7 -7 -7 -7 -7 -7 -7 -7 -6 -6 -6 -6 -6 -6 -6 -6 -6 -6 -6 -6 -6 -6 -5 -5 -5 -5 -5 -5 -5 -5
-6 -6 -6 -6 -6 -7 -7 -7 -7 -7 -7 -7 -7 -7 -7 -7 -7 -7 -7 -7 -7 -7 -7 -7 -7 -7 -7 -7 -6 -6 -6 -6 -6 -6 -6 -6 -6 -6 -6 -5 -5 -5 -5
-6 -7 -7 -7 -7 -7 -7 -7 -8 -8 -8 -8 -8 -8 -8 -8 -8 -8 -8 -8 -8 -7 -7 -7 -7 -7 -7 -7 -7 -7 -7 -7 -7 -7 -7 -6 -6 -6 -6 -6 -6 -6 -6
-7 -7 -7 -7 -8 -8 -8 -8 -8 -8 -8 -8 -8 -8 -8 -8 -8 -8 -8 -8 -8 -8 -8 -8 -8 -8 -8 -8 -7 -7 -7 -7 -7 -7 -7 -7 -7 -7 -6 -6 -6 -6 -6
-7 -7 -8 -8 -8 -8 -8 -8 -8 -9 -9 -9 -9 -9 -9 -8 -8 -8 -9 -9 -9 -8 -8 -8 -8 -8 -8 -8 -8 -8 -8 -8 -8 -7 -7 -7 -7 -7 -7 -7 -7 -7 -7
-8 -8 -8 -8 -8 -9 -9 -9 -9 -9 -9 -9 -9 -9 -9 -9 -9 -9 -9 -9 -9 -9 -9 -9 -9 -9 -9 -8 -8 -8 -8 -8 -8 -8 -8 -8 -8 -8 -7 -7 -7 -8 -7
-8 -8 -9 -9 -9 -9 -9 -9 -9 -9 -9 -9 -9 -9 -9 -9 -9 -9 -9 -9 -9 -9 -9 -9 -9 -9 -9 -9 -9 -9 -9 -9 -9 -9 -9 -9 -8 -8 -8 -8 -8 -8 -8
-9 -9 -9 -9 -9 -9 -10 -10 -10 -10 -10 -10 -10 -10 -10 -10 -10 -10 -10 -10 -10 -10 -10 -10 -9 -9 -9 -9 -9 -9 -9 -9 -9 -9 -9 -9 -9 -9 -9 -9 -8 -8 -8
-9 -9 -9 -10 -10 -10 -10 -10 -10 -10 -10 -10 -10 -10 -10 -10 -10 -10 -10 -10 -10 -10 -10 -10 -10 -10 -10 -10 -10 -10 -10 -10 -10 -10 -10 -10 -10 -10 -10 -10 -9 -9 -9
-9 -10 -10 -10 -10 -10 -10 -10 -10 -10 -11 -11 -11 -11 -11 -11 -11 -10 -10 -10 -10 -10 -10 -10 -10 -10 -10 -10 -10 -10 -10 -10 -10 -10 -10 -10 -10 -10 -10 -10 -10 -10 -10
-10 -10 -10 -10 -11 -11 -11 -11 -10 -11 -11 -11 -11 -11 -11 -11 -11 -11 -11 -11 -11 -11 -11 -11 -11 -11 -11 -11 -11 -11 -11 -11 -11 -11 -11 -11 -11 -11 -11 -10 -11 -11 -10
-10 -10 -10 -11 -11 -11 -11 -11 -11 -11 -11 -11 -11 -11 -11 -11 -11 -11 -11 -11 -11 -11 -11 -11 -11 -11 -11 -11 -11 -11 -11 -11 -11 -11 -11 -11 -11 -11 -11 -11 -11 -11 -11
-11 -11 -11 -11 -11 -12 -12 -12 -12 -12 -12 -11 -11 -11 -12 -11 -11 -11 -12 -12 -12 -12 -12 -12 -12 -12 -12 -12 -12 -12 -12 -12 -11 -11 -11 -11 -11 -11 -11 -11 -11 -11 -11
-11 -11 -11 -11 -12 -12 -12 -12 -12 -12 -12 -12 -12 -12 -12 -12 -12 -12 -12 -12 -12 -12 -12 -12 -12 -12 -12 -12 -12 -12 -12 -12 -12 -12 -12 -11 -11 -12 -12 -12 -12 -12 -12
-11 -11 -11 -12 -12 -12 -12 -12 -12 -12 -12 -12 -12 -12 -12 -12 -12 -12 -12 -13 -13 -13 -13 -13 -13 -13 -13 -13 -13 -13 -12 -12 -12 -12 -12 -12 -12 -12 -12 -12 -12 -12 -12
-12 -12 -12 -12 -12 -12 -12 -12 -13 -13 -13 -13 -13 -13 -13 -13 -13 -13 -13 -13 -13 -13 -13 -13 -13 -13 -13 -13 -13 -13 -13 -13 -12 -12 -12 -12 -12 -12 -12 -12 -12 -12 -12
-12 -12 -12 -12 -12 -12 -13 -13 -13 -13 -13 -13 -13 -13 -13 -13 -13 -13 -13 -13 -13 -13 -14 -14 -14 -13 -13 -13 -13 -13 -13 -13 -12 -12 -12 -12 -12 -12 -12 -12 -12 -12 -12
-12 -12 -12 -12 -12 -13 -13 -13 -13 -13 -13 -13 -13 -13 -13 -13 -13 -13 -13 -13 -13 -14 -14 -14 -14 -14 -14 -13 -13 -13 -13 -13 -13 -13 -13 -12 -12 -12 -12 -12 -12 -12 -12
-13 -12 -12 -13 -13 -13 -13 -13 -13 -13 -13 -13 -14 -14 -14 -13 -13 -13 -13 -13 -14 -14 -14 -14 -14 -14 -14 -13 -13 -13 -13 -13 -13 -13 -13 -12 -12 -12 -12 -12 -12 -12 -12
-13 -13 -13 -13 -13 -13 -13 -13 -13 -14 -14 -14 -14 -14 -14 -14 -14 -14 -14 -14 -14 -14 -14 -14 -14 -14 -14 -13 -13 -13 -13 -13 -13 -13 -13 -12 -12 -12 -12 -12 -12 -12 -12
-13 -13 -13 -13 -13 -13 -14 -14 -14 -14 -14 -14 -14 -14 -14 -14 -14 -14 -14 -14 -14 -14 -14 -14 -14 -14 -14 -13 -13 -13 -13 -13 -13 -13 -13 -12 -12 -12 -12 -12 -12 -12 -12
Wind_Speed
2 2 1 2 2 2 2 2 2 2 3 4 4 4 4 4 4 3 4 4 4 4 5 5 6 6 5 4 4 5 5 5 8 7 5 5 6 7 9 10 11 11 10
2 1 2 2 1 2 2 2 2 3 3 4 4 4 4 4 4 4 5 5 5 5 6 6 7 6 6 5 5 5 6 5 7 9 7 5 7 7 7 7 9 10 9
2 2 2 2 2 2 3 3 3 3 3 4 4 4 5 5 5 5 5 5 5 6 6 6 7 7 7 6 6 6 6 6 6 7 8 6 5 6 6 7 8 7 9
2 2 3 3 3 3 3 3 3 3 3 4 4 5 5 6 6 6 6 6 6 6 7 7 7 7 8 7 7 7 6 6 6 6 7 6 6 5 4 6 6 5 6
2 3 3 3 3 3 3 3 3 3 4 4 4 5 6 6 6 7 7 6 6 6 6 6 7 9 11 9 8 6 6 6 6 6 7 7 6 5 5 5 6 6 6
2 3 3 3 3 3 3 3 3 3 4 4 5 5 6 6 10 11 9 6 5 6 6 6 8 9 11 12 13 12 10 8 7 7 7 7 7 6 5 6 6 7 7
2 3 3 3 3 3 4 3 4 4 4 5 5 6 6 8 11 11 11 6 5 6 7 7 7 8 10 8 11 13 12 14 13 9 8 8 8 7 7 7 7 8 9
2 3 3 3 4 4 4 4 5 4 5 5 6 6 6 8 11 11 11 5 5 6 7 7 8 8 9 9 9 8 8 8 10 8 8 9 9 8 7 8 8 8 7
3 4 4 4 4 4 5 5 5 5 5 5 6 6 6 8 11 11 10 5 5 7 7 7 8 8 12 14 9 9 9 8 10 12 12 12 13 13 11 6 6 6 8
5 4 4 4 5 5 6 6 5 5 5 6 6 6 7 8 11 11 10 4 5 6 6 7 10 11 13 13 8 7 8 8 7 7 8 9 9 10 11 7 6 6 6
4 4 4 4 5 5 5 5 4 5 5 5 6 6 6 8 9 11 11 5 5 6 6 6 7 12 13 13 10 7 10 9 6 6 6 6 5 5 5 6 6 6 7
3 4 4 4 4 4 4 4 4 4 4 5 5 6 5 6 8 10 11 10 9 6 6 6 7 12 12 12 9 10 12 9 5 5 5 5 5 5 5 6 7 7 7
3 4 4 5 4 4 4 4 4 4 4 5 5 5 6 5 6 11 11 11 11 7 6 10 11 11 10 8 9 10 8 5 5 5 5 5 5 5 5 5 5 6 7
4 4 4 4 4 4 4 4 4 4 5 5 5 5 6 6 6 6 6 7 8 8 7 8 9 9 7 7 7 6 5 5 5 5 5 5 5 4 5 4 5 5 5
4 4 4 4 4 4 4 4 4 5 6 6 5 5 5 6 8 10 7 5 5 6 5 3 3 4 4 4 4 4 4 5 5 4 5 5 5 5 5 4 5 5 5
4 4 3 3 4 4 4 5 7 7 9 9 9 8 7 9 11 11 10 10 10 8 4 3 4 4 4 5 5 5 4 4 5 4 4 5 5 5 5 5 4 5 6
4 4 3 3 3 4 4 4 5 7 8 8 8 9 9 10 10 10 9 8 7 6 3 3 4 4 5 5 5 5 5 5 5 5 4 5 5 5 5 5 5 5 5
4 5 4 3 3 4 4 4 4 5 6 5 7 9 9 9 9 9 8 6 4 4 3 4 4 4 5 5 5 5 5 5 5 5 5 5 5 5 5 5 5 5 6
4 3 3 3 3 4 4 4 4 4 4 5 5 6 8 8 7 7 6 3 3 4 4 4 4 4 5 5 5 5 6 5 5 5 5 5 5 5 6 6 6 8 7
4 6 4 3 3 3 3 4 4 4 4 4 5 5 5 5 4 5 4 3 3 4 4 4 5 5 5 5 5 5 6 6 6 5 6 5 5 6 7 7 7 6 6
3 4 5 4 3 3 4 4 4 4 4 5 5 6 8 5 4 4 4 4 4 4 5 5 5 5 5 5 5 6 6 6 6 6 6 6 6 6 6 7 7 7 7
3 3 3 3 3 3 4 3 4 4 4 5 5 6 8 5 4 4 4 5 4 4 4 5 5 5 5 5 6 6 7 7 6 6 6 6 6 6 6 6 6 6 6
3 3 3 3 3 5 4 3 4 4 4 5 5 5 5 4 4 5 5 5 5 5 5 5 5 6 7 7 8 7 7 7 7 7 7 7 7 6 6 6 7 7 7
2 3 3 3 3 3 4 4 4 4 4 5 5 5 5 5 5 6 5 5 5 5 6 6 7 8 10 10 9 9 10 10 10 9 10 8 8 7 6 6 7 7 7
2 3 3 3 3 4 4 4 4 4 5 5 5 5 5 5 5 6 5 5 6 6 7 8 8 9 11 12 12 12 13 15 14 12 10 8 8 8 7 7 6 7 7
3 3 3 3 3 4 4 4 5 5 5 5 5 5 5 5 6 6 6 5 6 6 7 8 10 11 13 12 13 14 15 15 15 14 9 6 6 6 6 6 6 6 6
Wind_Direction
204 210 217 238 257 265 268 271 281 301 308 304 308 304 303 302 304 300 294 298 297 298 297 295 291 286 285 283 270 267 267 263 269 281 281 284 282 286 294 294 292 286 285
214 221 235 246 262 266 271 275 288 289 295 295 301 298 296 298 296 288 288 294 289 289 290 290 288 289 286 284 277 269 269 265 264 275 281 280 276 277 281 286 294 289 286
210 221 241 248 252 259 269 277 280 279 287 295 296 291 290 291 289 285 279 278 276 277 279 280 282 285 284 284 281 272 270 272 267 270 277 277 277 275 277 284 286 287 286
215 229 242 247 248 252 263 270 271 271 275 281 286 289 289 288 285 281 278 274 272 275 276 276 279 277 277 277 280 275 270 270 271 272 278 280 277 272 267 275 286 285 288
223 243 253 256 256 260 263 267 272 275 281 284 287 286 288 284 275 273 271 272 271 274 277 277 278 282 281 280 281 281 275 268 271 273 278 283 280 277 273 276 283 290 287
223 248 264 267 267 265 263 264 270 273 276 278 276 276 280 285 287 291 291 280 279 281 283 284 283 282 287 293 292 290 286 276 271 270 275 277 278 276 273 274 277 284 285
243 260 266 265 268 270 274 271 265 265 268 273 273 272 274 281 290 293 295 295 283 280 281 283 288 289 295 288 290 293 291 288 281 273 271 272 275 272 270 272 271 272 275
253 260 265 263 268 274 271 267 266 264 262 266 272 271 274 284 293 294 298 298 280 277 278 276 277 281 285 286 283 283 279 278 279 275 267 272 275 274 266 267 268 274 280
259 259 260 259 266 270 271 268 268 267 270 267 271 270 272 283 292 294 298 281 279 278 279 278 279 275 283 290 289 286 283 280 283 280 280 284 286 286 282 276 271 267 275
262 263 263 260 262 264 266 268 266 266 269 277 280 275 271 276 288 295 300 281 285 284 283 281 285 286 289 292 286 281 282 281 281 284 286 291 290 290 287 275 265 263 272
270 271 269 267 265 263 265 264 264 269 274 272 277 278 272 278 289 294 296 291 281 281 284 286 285 293 296 298 297 284 283 290 285 280 280 283 284 283 285 283 272 260 262
275 273 271 270 272 278 270 269 263 261 270 272 277 283 276 278 287 289 293 296 297 283 282 285 288 297 300 303 300 295 297 301 293 284 282 285 286 286 288 289 285 277 270
277 274 275 278 279 281 271 262 261 256 262 274 275 280 286 285 283 289 291 294 297 293 283 290 295 300 303 304 301 304 305 296 287 282 283 285 284 284 287 290 293 291 289
274 277 280 281 285 285 284 272 263 261 262 269 271 278 286 287 285 281 274 279 288 291 288 291 299 305 303 302 305 306 297 284 283 280 282 285 287 287 285 286 286 289 288
274 274 281 287 284 288 289 278 278 262 261 269 265 266 275 280 286 297 302 293 286 281 297 299 303 305 301 299 298 296 295 293 291 286 285 288 291 290 290 291 286 287 278
278 279 279 283 285 290 297 305 300 300 299 300 300 297 291 292 300 306 309 309 310 313 315 299 295 295 294 296 298 300 300 300 296 293 289 287 287 286 287 291 286 279 277
268 273 277 282 286 292 297 302 308 313 314 314 312 310 309 308 311 315 317 319 321 328 318 296 291 292 293 295 293 294 295 295 293 289 286 285 285 284 283 283 281 278 276
275 274 279 275 279 284 289 291 292 300 311 314 316 316 317 317 317 320 323 331 326 326 308 298 296 295 296 296 294 293 293 294 292 290 284 280 279 280 282 280 275 271 273
277 272 272 276 278 280 286 289 291 294 300 306 313 316 324 327 325 325 332 328 307 304 303 298 295 294 295 295 296 293 290 288 287 286 281 277 274 273 274 272 271 274 274
275 284 291 284 282 284 285 288 292 296 299 302 303 306 315 321 317 316 320 311 300 295 294 293 293 291 293 294 294 293 293 289 286 284 281 276 273 270 270 270 268 266 265
274 281 292 293 281 281 282 285 288 291 293 296 298 299 310 311 307 307 308 304 297 293 292 292 291 291 290 291 290 290 290 289 285 283 282 278 275 273 271 268 267 262 263
266 273 278 277 280 282 286 287 289 290 291 295 300 304 312 316 304 299 299 299 295 290 286 286 286 285 282 283 283 284 284 283 283 282 280 278 275 271 272 271 269 263 261
265 273 281 282 282 288 297 295 292 291 292 294 298 304 309 307 300 298 297 298 298 294 287 282 284 285 283 281 277 273 274 276 276 275 275 276 272 269 268 268 267 265 264
266 272 277 282 285 283 286 290 292 292 294 295 298 300 301 302 302 298 296 297 297 293 288 283 280 281 285 287 285 279 274 275 274 269 266 265 266 268 267 266 267 266 267
270 275 279 278 280 284 289 293 294 295 296 298 299 301 303 303 302 303 302 298 295 293 291 290 286 285 286 287 287 287 288 289 287 279 266 262 261 263 265 266 267 270 271
270 273 276 279 280 283 286 289 291 293 293 295 297 298 299 299 300 300 300 302 302 299 296 293 291 291 291 292 293 294 296 296 296 294 282 265 264 267 270 270 269 269 270
Height
1494 1494 1494 1493 1493 1492 1491 1491 1490 1489 1488 1487 1485 1484 1483 1482 1480 1479 1478 1477 1476 1475 1474 1473 1472 1472 1471 1470 1469 1469 1468 1467 1463 1461 1462 1462 1461 1460 1460 1460 1460 1459 1458
1491 1491 1490 1490 1489 1488 1487 1487 1486 1485 1484 1482 1481 1480 1478 1477 1476 1475 1474 1473 1471 1470 1469 1468 1468 1467 1466 1465 1464 1463 1462 1461 1460 1457 1456 1457 1457 1456 1455 1455 1454 1453 1452
1487 1487 1486 1485 1485 1484 1483 1482 1481 1480 1479 1478 1477 1475 1474 1473 1471 1470 1469 1468 1467 1466 1465 1463 1463 1462 1460 1459 1459 1458 1457 1456 1455 1453 1451 1451 1451 1451 1450 1449 1448 1447 1447
1483 1483 1482 1481 1480 1479 1478 1478 1477 1476 1475 1474 1472 1471 1469 1468 1467 1466 1464 1463 1462 1461 1460 1459 1458 1457 1455 1455 1454 1453 1452 1451 1450 1449 1447 1446 1446 1445 1445 1443 1442 1441 1441
1479 1479 1478 1477 1476 1475 1474 1473 1472 1471 1470 1469 1468 1466 1465 1464 1462 1461 1460 1459 1458 1456 1455 1454 1453 1452 1451 1450 1449 1448 1447 1446 1445 1443 1442 1441 1440 1440 1439 1438 1437 1435 1434
1475 1475 1474 1472 1471 1471 1469 1469 1468 1467 1466 1464 1463 1462 1460 1459 1458 1457 1457 1455 1453 1452 1450 1449 1448 1447 1446 1445 1444 1444 1443 1441 1440 1438 1437 1436 1435 1435 1434 1433 1432 1430 1428
1471 1470 1469 1468 1467 1466 1465 1464 1463 1462 1461 1459 1458 1457 1455 1454 1454 1453 1452 1451 1449 1447 1446 1444 1443 1442 1441 1439 1438 1437 1437 1436 1435 1434 1432 1430 1430 1429 1429 1428 1427 1426 1423
1467 1466 1465 1464 1462 1461 1460 1459 1458 1457 1456 1455 1453 1452 1451 1450 1449 1448 1447 1445 1444 1442 1441 1439 1438 1436 1436 1435 1433 1431 1430 1429 1429 1428 1426 1425 1425 1424 1424 1423 1421 1420 1418
1463 1462 1461 1460 1458 1457 1456 1454 1453 1452 1451 1450 1449 1447 1446 1445 1444 1443 1442 1440 1439 1437 1436 1435 1433 1432 1431 1430 1428 1426 1424 1423 1423 1422 1421 1419 1418 1418 1418 1417 1415 1414 1411
1459 1458 1457 1455 1454 1452 1451 1450 1449 1448 1447 1446 1444 1443 1442 1440 1439 1438 1437 1436 1434 1432 1431 1430 1428 1427 1426 1425 1423 1421 1418 1417 1416 1415 1414 1413 1411 1410 1410 1410 1409 1408 1406
1455 1454 1452 1451 1449 1448 1446 1445 1444 1443 1442 1441 1440 1438 1437 1436 1434 1433 1432 1431 1430 1428 1426 1424 1423 1422 1420 1419 1417 1415 1413 1412 1410 1409 1407 1406 1405 1404 1403 1403 1403 1402 1401
1451 1450 1448 1447 1445 1443 1442 1441 1440 1439 1437 1436 1435 1433 1432 1431 1430 1428 1427 1427 1425 1423 1421 1419 1418 1417 1415 1413 1412 1410 1409 1407 1405 1403 1402 1400 1399 1397 1397 1396 1396 1395 1395
1447 1446 1444 1442 1441 1439 1437 1436 1435 1434 1433 1432 1430 1429 1427 1426 1425 1424 1423 1421 1420 1418 1416 1415 1413 1411 1410 1408 1406 1405 1403 1402 1400 1398 1396 1395 1393 1392 1391 1390 1389 1389 1388
1443 1442 1440 1438 1436 1435 1434 1432 1431 1430 1429 1427 1426 1424 1423 1422 1420 1419 1418 1416 1414 1413 1411 1409 1408 1406 1405 1403 1401 1400 1398 1396 1395 1393 1391 1390 1389 1387 1386 1385 1383 1382 1381
1440 1438 1436 1435 1433 1431 1430 1429 1427 1426 1425 1424 1422 1421 1419 1417 1416 1415 1413 1411 1410 1408 1407 1405 1403 1401 1400 1398 1396 1395 1393 1391 1390 1388 1387 1385 1383 1382 1381 1380 1378 1377 1376
1436 1434 1433 1431 1429 1428 1426 1424 1424 1423 1421 1420 1418 1417 1415 1414 1412 1410 1409 1407 1406 1404 1403 1400 1399 1397 1395 1394 1392 1390 1388 1387 1385 1383 1382 1380 1378 1377 1376 1374 1373 1372 1370
1432 1431 1429 1428 1426 1425 1423 1421 1419 1418 1417 1416 1414 1412 1411 1409 1408 1406 1405 1403 1402 1400 1398 1396 1394 1393 1391 1390 1388 1386 1384 1382 1381 1379 1377 1376 1374 1372 1371 1369 1368 1367 1365
1429 1428 1426 1424 1423 1422 1420 1418 1416 1414 1412 1411 1410 1409 1407 1405 1403 1402 1400 1399 1397 1396 1394 1392 1390 1389 1387 1385 1383 1382 1380 1378 1376 1374 1373 1371 1369 1367 1366 1364 1363 1361 1360
1426 1424 1423 1421 1420 1418 1417 1415 1414 1412 1410 1408 1406 1405 1403 1401 1400 1398 1397 1395 1393 1391 1390 1388 1386 1385 1383 1381 1379 1377 1375 1373 1371 1370 1368 1366 1364 1362 1361 1359 1358 1356 1355
1422 1421 1420 1418 1417 1415 1414 1412 1410 1409 1407 1405 1403 1401 1400 1398 1396 1394 1393 1391 1390 1388 1386 1384 1382 1381 1379 1377 1374 1373 1371 1369 1367 1365 1363 1361 1359 1357 1355 1354 1352 1351 1350
1419 1418 1416 1415 1414 1412 1411 1409 1408 1406 1404 1402 1401 1399 1398 1396 1393 1391 1389 1388 1386 1384 1382 1380 1378 1376 1374 1372 1370 1368 1366 1364 1362 1360 1358 1356 1354 1352 1350 1348 1347 1345 1344
1416 1414 1413 1412 1411 1409 1408 1406 1405 1403 1401 1399 1397 1396 1395 1393 1391 1389 1387 1385 1383 1380 1378 1376 1374 1372 1370 1368 1366 1363 1361 1359 1357 1355 1352 1350 1348 1346 1344 1343 1341 1340 1339
1413 1411 1410 1409 1408 1406 1405 1403 1402 1400 1398 1397 1395 1393 1391 1389 1387 1385 1383 1381 1379 1376 1374 1372 1370 1367 1366 1363 1361 1359 1356 1354 1352 1350 1347 1345 1343 1341 1340 1338 1336 1335 1334
1410 1408 1407 1406 1404 1403 1402 1400 1399 1397 1395 1394 1392 1390 1388 1386 1384 1382 1380 1377 1375 1372 1370 1368 1365 1363 1361 1359 1356 1354 1352 1349 1347 1345 1343 1340 1338 1337 1335 1334 1332 1331 1329
1407 1405 1404 1403 1401 1400 1398 1397 1396 1394 1392 1391 1389 1387 1385 1383 1381 1378 1376 1374 1371 1368 1366 1364 1361 1359 1356 1354 1352 1349 1347 1345 1342 1340 1338 1336 1334 1333 1331 1329 1328 1326 1324
1404 1402 1401 1400 1398 1397 1395 1394 1392 1391 1389 1388 1386 1384 1382 1379 1377 1375 1372 1370 1367 1365 1362 1360 1357 1355 1352 1349 1347 1345 1342 1340 1338 1336 1335 1332 1331 1329 1327 1325 1324 1322 1320